Weather History for El Centro, CA

Change the Weather History Date:

Tuesday, December 11, 2012

  Actual Average Record
Temperature  
Mean Temperature 58 °F -  
Max Temperature 73 °F 67 °F 81 °F (2004)
Min Temperature 42 °F 43 °F 33 °F (2013)
Degree Days  
Heating Degree Days 8    
Growing Degree Days 8 (Base 50)    
Moisture  
Dew Point 30 °F    
Average Humidity 39    
Maximum Humidity 58    
Minimum Humidity 18    
Precipitation  
Precipitation 0.00 in - - ()
Sea Level Pressure  
Sea Level Pressure 30.05 in    
Wind  
Wind Speed 4 mph (South)    
Max Wind Speed 8 mph    
Max Gust Speed -    
Visibility 10 miles    
Events      
Averages and records for this station are not official NWS values.
T = Trace of Precipitation, MM = Missing Value Source: NWS Daily Summary

Daily Weather History Graph

Daily Weather History Graph

Search for Another Location

Airport:

Trip Planner

Search our weather history database for the weather conditions in past years. The results will help you decide how hot, cold, wet, or windy it might be!

Date:

Astronomy

Dec. 11, 2012 Rise Set
Actual Time 6:35 AM PST 4:36 PM PST
Civil Twilight 6:08 AM PST 5:04 PM PST
Nautical Twilight 5:37 AM PST 5:34 PM PST
Astronomical Twilight 5:07 AM PST 6:05 PM PST
Moon 4:38 AM PST (12/11) 3:17 PM PST (12/11)
Length of Visible Light 10h 56m
Length of Day
10h 01m
Waning Crescent, 4% of the Moon is Illuminated
Dec 11
Waning Crescent
Dec 13
New
Dec 19
First Quarter
Dec 28
Full
Jan 4
Last Quarter

Hourly Weather History & Observations

Time (PST) Temp. Windchill Dew Point Humidity Pressure Visibility Wind Dir Wind Speed Gust Speed Precip Events Conditions
12:56 AM 45.0 °F 41.2 °F 21.0 °F 39% 30.09 in 10.0 mi West 6.9 mph - N/A   Clear
1:56 AM 45.0 °F - 21.9 °F 40% 30.09 in 10.0 mi Calm Calm - N/A   Clear
2:56 AM 46.0 °F 42.5 °F 25.0 °F 44% 30.09 in 10.0 mi WSW 6.9 mph - N/A   Clear
3:56 AM 42.1 °F 38.4 °F 25.0 °F 51% 30.08 in 10.0 mi WSW 5.8 mph - N/A   Clear
4:56 AM 45.0 °F 43.5 °F 24.1 °F 44% 30.07 in 10.0 mi WSW 3.5 mph - N/A   Clear
5:56 AM 44.1 °F - 25.0 °F 47% 30.09 in - Calm Calm - N/A   Partly Cloudy
6:56 AM 42.1 °F 40.2 °F 27.0 °F 55% 30.10 in 10.0 mi South 3.5 mph - N/A   Clear
7:56 AM 51.1 °F - 25.0 °F 36% 30.12 in 10.0 mi Calm Calm - N/A   Partly Cloudy
8:56 AM 55.9 °F - 30.9 °F 39% 30.13 in 10.0 mi Calm Calm - N/A   Partly Cloudy
9:56 AM 61.0 °F - 32.0 °F 34% 30.12 in 10.0 mi Calm Calm - N/A   Partly Cloudy
10:56 AM 64.9 °F - 39.0 °F 39% 30.10 in 10.0 mi Calm Calm - N/A   Partly Cloudy
11:56 AM 70.0 °F - 36.0 °F 29% 30.06 in 10.0 mi SE 3.5 mph - N/A   Partly Cloudy
12:56 PM 72.0 °F - 33.1 °F 24% 30.03 in 10.0 mi SE 5.8 mph - N/A   Clear
1:56 PM 73.0 °F - 32.0 °F 22% 30.01 in 10.0 mi SE 5.8 mph - N/A   Partly Cloudy
2:56 PM 73.9 °F - 28.0 °F 18% 29.99 in 10.0 mi East 5.8 mph - N/A   Partly Cloudy
3:56 PM 70.0 °F - 32.0 °F 25% 29.98 in 10.0 mi East 6.9 mph - N/A   Partly Cloudy
4:56 PM 64.9 °F - 33.1 °F 31% 29.98 in 10.0 mi ESE 3.5 mph - N/A   Clear
5:56 PM 61.0 °F - 30.0 °F 31% 29.99 in 10.0 mi South 6.9 mph - N/A   Clear
6:56 PM 57.0 °F - 32.0 °F 39% 30.00 in 10.0 mi SSE 8.1 mph - N/A   Clear
7:56 PM 54.0 °F - 34.0 °F 47% 30.00 in 10.0 mi South 5.8 mph - N/A   Clear
8:56 PM 48.9 °F - 32.0 °F 52% 30.00 in 10.0 mi SW 3.5 mph - N/A   Clear
9:56 PM 50.0 °F - 32.0 °F 50% 29.99 in 10.0 mi SW 5.8 mph - N/A   Clear
10:56 PM 48.9 °F - 28.0 °F 44% 29.99 in 10.0 mi SW 4.6 mph - N/A   Clear
11:56 PM 44.1 °F 40.8 °F 30.0 °F 58% 29.99 in 10.0 mi East 5.8 mph - N/A   Clear